This demonstration page uses our WeatherBlox Daily Observations layout. Learn more.

Hourly Observations for June 27, 2019

Temp ( °F °C ) Dew Point ( °F °C ) Humidity (%) Winds ( mph kmh ) Pressure ( in mb ) Visibility ( mi km ) Precip ( " mm )
12:15 am 00:15 Clear 73 22.8 68 20 84 84 SE 12 19 29.88 1012 10 16.09344 0 0
12:35 am 00:35 Clear 74 23.4 67 19.6 79 79 SE 12 19 29.85 1011 10 16.09344 0 0
12:55 am 00:55 Clear 75 23.7 67 19.5 77 77 SE 12 19 29.85 1011 10 16.09344 0 0
1:15 am 01:15 Clear 74 23.2 67 19.3 79 79 SE 10 17 29.85 1011 10 16.09344 0 0
1:35 am 01:35 Clear 74 23.2 67 19.2 78 78 SE 10 17 29.85 1011 10 16.09344 0 0
1:55 am 01:55 Clear 74 23.6 66 19.1 76 76 SSE 12 19 29.85 1011 10 16.09344 0 0
2:15 am 02:15 Clear 74 23.4 66 19.1 77 77 SSE 10 17 29.85 1011 10 16.09344 0 0
2:35 am 02:35 Clear 74 23.6 67 19.2 76 76 SSE 16 26 29.85 1011 10 16.09344 0 0
2:55 am 02:55 Clear 75 23.7 66 19.1 76 76 S 14 22 29.85 1011 10 16.09344 0 0
3:15 am 03:15 Clear 74 23.6 66 19 75 75 S 14 22 29.85 1011 10 16.09344 0 0
3:35 am 03:35 Clear 74 23.4 66 18.8 75 75 S 14 22 29.83 1010 10 16.09344 0 0
3:55 am 03:55 Clear 73 22.8 66 18.8 78 78 S 15 24 29.83 1010 10 16.09344 0 0
4:15 am 04:15 Clear 73 22.6 66 18.8 79 79 S 16 26 29.85 1011 10 16.09344 0 0
4:35 am 04:35 Clear 72 22.3 66 18.7 80 80 S 17 28 29.85 1011 10 16.09344 0 0
4:55 am 04:55 Clear 72 22.1 65 18.6 81 81 S 16 26 29.85 1011 10 16.09344 0 0
5:15 am 05:15 Clear 71 21.8 65 18.6 82 82 S 14 22 29.88 1012 10 16.09344 0 0
5:35 am 05:35 Clear 71 21.5 65 18.6 84 84 S 12 19 29.88 1012 10 16.09344 0 0
5:55 am 05:55 Clear 70 21.1 65 18.6 86 86 SSE 10 17 29.88 1012 10 16.09344 0 0
6:15 am 06:15 Sunny 69 20.7 65 18.6 88 88 SSE 9 15 29.88 1012 10 16.09344 0 0
6:35 am 06:35 Sunny 69 20.4 65 18.5 89 89 ESE 6 9 29.88 1012 10 16.09344 0 0
6:55 am 06:55 Sunny 69 20.5 65 18.6 89 89 SSE 9 15 29.88 1012 10 16.09344 0 0
7:15 am 07:15 Sunny 70 21 66 18.8 87 87 SSE 10 17 29.88 1012 10 16.09344 0 0
7:35 am 07:35 Sunny 71 21.5 66 19 86 86 SSE 10 17 29.88 1012 10 16.09344 0 0
7:55 am 07:55 Sunny 72 22.1 67 19.2 84 84 S 10 17 29.88 1012 10 16.09344 0 0
8:15 am 08:15 Sunny 73 22.6 67 19.3 82 82 S 13 20 29.88 1012 10 16.09344 0 0
8:35 am 08:35 Sunny 73 23 67 19.5 81 81 S 12 19 29.83 1010 10 16.09344 0 0
8:55 am 08:55 Sunny 74 23.5 67 19.4 78 78 S 12 19 29.85 1011 10 16.09344 0 0
9:15 am 09:15 Sunny 75 24.1 67 19.7 77 77 S 12 19 29.85 1011 10 16.09344 0 0
9:35 am 09:35 Sunny 76 24.5 68 19.8 75 75 S 13 20 29.85 1011 10 16.09344 0 0
9:55 am 09:55 Sunny 76 24.6 68 19.9 75 75 S 12 19 29.85 1011 10 16.09344 0 0
10:15 am 10:15 Sunny 77 25 68 19.8 73 73 S 12 19 29.85 1011 10 16.09344 0 0
10:35 am 10:35 Sunny 78 25.5 68 20 72 72 SSE 10 17 29.85 1011 10 16.09344 0 0
10:55 am 10:55 Sunny 79 26 68 20.1 70 70 S 7 11 29.85 1011 10 16.09344 0 0
11:15 am 11:15 Sunny 80 26.5 69 20.3 69 69 S 7 11 29.85 1011 10 16.09344 0 0
11:35 am 11:35 Sunny 80 26.8 67 19.7 65 65 SSE 10 17 29.83 1010 10 16.09344 0 0
11:55 am 11:55 Sunny 82 27.5 69 20.8 67 67 S 10 17 29.83 1010 10 16.09344 0 0
12:15 pm 12:15 Sunny 82 27.6 69 20.4 65 65 S 10 17 29.83 1010 10 16.09344 0 0
12:35 pm 12:35 Sunny 82 28 68 20.2 63 63 S 10 17 29.83 1010 10 16.09344 0 0
12:55 pm 12:55 Sunny 83 28.3 68 20.1 61 61 SSE 12 19 29.83 1010 10 16.09344 0 0
1:15 pm 13:15 Sunny 84 28.7 67 19.6 58 58 S 12 19 29.83 1010 10 16.09344 0 0
1:35 pm 13:35 Sunny 84 29.1 68 20 58 58 S 8 13 29.83 1010 10 16.09344 0 0
1:55 pm 13:55 Sunny 86 30 67 19.4 53 53 S 10 17 29.83 1010 10 16.09344 0 0
2:15 pm 14:15 Sunny 87 30.7 66 19.1 50 50 S 10 17 29.8 1009 10 16.09344 0 0
2:35 pm 14:35 Sunny 89 31.4 66 19.1 48 48 S 14 22 29.8 1009 10 16.09344 0 0
2:55 pm 14:55 Sunny 89 31.7 66 18.8 46 46 S 10 17 29.77 1008 10 16.09344 0 0
3:15 pm 15:15 Sunny 90 32.4 65 18.6 44 44 S 13 20 29.8 1009 10 16.09344 0 0
3:35 pm 15:35 Sunny 91 32.9 65 18.5 42 42 S 13 20 29.77 1008 10 16.09344 0 0
3:55 pm 15:55 Sunny 92 33.1 67 19.2 44 44 SSW 10 17 29.77 1008 10 16.09344 0 0
4:15 pm 16:15 Sunny 92 33.5 65 18.5 41 41 SW 10 17 29.77 1008 10 16.09344 0 0
4:35 pm 16:35 Sunny 92 33.5 65 18.1 40 40 SSW 9 15 29.77 1008 10 16.09344 0 0
4:55 pm 16:55 Sunny 92 33.6 64 17.8 39 39 SW 7 11 29.77 1008 10 16.09344 0 0
5:15 pm 17:15 Sunny 92 33.5 64 17.5 38 38 SW 10 17 29.77 1008 10 16.09344 0 0
5:30 pm 17:30 Sunny 93 33.7 64 17.7 39 39 SSW 8 13 29.71 1006 10 16.09344 0 0
5:55 pm 17:55 Sunny 93 33.8 63 17.4 38 38 SSW 6 9 29.71 1006 10 16.09344 0 0
6:15 pm 18:15 Sunny 92 33.3 65 18.2 41 41 WSW 5 7 29.74 1007 10 16.09344 0 0
6:35 pm 18:35 Sunny 92 33.2 64 17.5 39 39 W 3 6 29.74 1007 10 16.09344 0 0
6:55 pm 18:55 Sunny 92 33.2 65 18.5 42 42 W 5 7 29.74 1007 10 16.09344 0 0
7:15 pm 19:15 Sunny 91 32.5 65 18.5 43 43 W 3 6 29.74 1007 10 16.09344 0 0
7:35 pm 19:35 Sunny 87 30.4 67 19.7 53 53 WNW 5 7 29.77 1008 10 16.09344 0 0
7:55 pm 19:55 Sunny 87 30.6 70 21.3 58 58 NNW 5 7 29.77 1008 10 16.09344 0 0
8:15 pm 20:15 Sunny 85 29.2 71 21.7 64 64 N 5 7 29.8 1009 10 16.09344 0 0
8:35 pm 20:35 Sunny 83 28.4 72 22.1 69 69 NNW 6 9 29.8 1009 10 16.09344 0 0
8:55 pm 20:55 Sunny 81 27 73 22.9 78 78 N 3 6 29.8 1009 10 16.09344 0 0
9:15 pm 21:15 Clear 78 25.6 72 22.1 81 81 N 6 9 29.83 1010 10 16.09344 0 0
9:35 pm 21:35 Clear 75 24 70 21.1 84 84 N 7 11 29.83 1010 10 16.09344 0 0
9:55 pm 21:55 Clear 74 23.4 70 20.9 86 86 N 6 9 29.85 1011 10 16.09344 0 0
10:15 pm 22:15 Clear 72 22.1 68 20 88 88 NE 3 6 29.88 1012 10 16.09344 0 0
10:40 pm 22:40 Clear 72 22.1 68 20.1 88 88 N 3 6 29.88 1012 10 16.09344 0 0
10:55 pm 22:55 Clear 69 20.7 67 19.5 93 93 N 5 7 29.88 1012 10 16.09344 0 0
11:15 pm 23:15 Clear 70 21 67 19.5 91 91 Calm 29.88 1012 10 16.09344 0 0
11:35 pm 23:35 Clear 70 20.9 67 19.3 91 91 WNW 3 6 29.88 1012 10 16.09344 0 0
11:55 pm 23:55 Clear 69 20.6 67 19.2 92 92 W 3 6 29.88 1012 10 16.09344 0 0

Powered by AerisWeather